• In Netherlands
  • List of Countries
  • For 7 days
  • Water Temperature
  • Satellite Maps
  • Weather Map
  • Weather Widgets
  • user-avatar
    Login

    Hourly Weather Kitzbuhel

    Today, 28 March, Tuesday

    Time Temperature Precipitation Wind Pressure Humidity
    00:00 +2°C° 0 mm 1 mps 679 mmHg 86%
    01:00 +2°C° 0 mm 1 mps 679 mmHg 85%
    02:00 +2°C° 0 mm 1 mps 679 mmHg 84%
    03:00 +2°C° 0 mm 1 mps 679 mmHg 83%
    04:00 +2°C° 0 mm 1 mps 679 mmHg 82%
    05:00 +2°C° 0 mm 1 mps 679 mmHg 81%
    06:00 +3°C° 0 mm 1 mps 679 mmHg 79%
    07:00 +5°C° 0 mm 1 mps 680 mmHg 73%
    08:00 +7°C° 0 mm 1 mps 680 mmHg 71%
    09:00 +9°C° 0 mm 1 mps 681 mmHg 69%
    10:00 +10°C° 0 mm 0 mps 681 mmHg 67%
    11:00 +12°C° 0 mm 1 mps 681 mmHg 66%
    12:00 +13°C° 0 mm 1 mps 681 mmHg 65%
    13:00 +14°C° 0 mm 1 mps 681 mmHg 64%
    14:00 +13°C° 0 mm 1 mps 681 mmHg 67%
    15:00 +13°C° 0 mm 1 mps 681 mmHg 69%
    16:00 +13°C° 0 mm 1 mps 681 mmHg 72%
    17:00 +10°C° 0 mm 1 mps 680 mmHg 79%
    18:00 +8°C° 0 mm 1 mps 680 mmHg 86%
    19:00 +5°C° 0 mm 1 mps 679 mmHg 93%
    20:00 +5°C° 0 mm 1 mps 680 mmHg 93%
    21:00 +5°C° 0 mm 1 mps 680 mmHg 94%
    22:00 +5°C° 0 mm 1 mps 681 mmHg 94%
    23:00 +5°C° 0 mm 1 mps 681 mmHg 94%

    Tomorrow, 29 March, Wednesday

    Time Temperature Precipitation Wind Pressure Humidity
    00:00 +5°C° 0 mm 1 mps 681 mmHg 94%
    01:00 +5°C° 0 mm 2 mps 681 mmHg 94%
    02:00 +5°C° 0.1 mm 2 mps 682 mmHg 94%
    03:00 +5°C° 0.1 mm 2 mps 682 mmHg 94%
    04:00 +5°C° 0.1 mm 2 mps 682 mmHg 95%
    05:00 +6°C° 0.1 mm 1 mps 682 mmHg 95%
    06:00 +6°C° 0.1 mm 1 mps 682 mmHg 95%
    07:00 +7°C° 0.1 mm 1 mps 683 mmHg 95%
    08:00 +8°C° 0.1 mm 1 mps 683 mmHg 92%
    09:00 +9°C° 0.1 mm 1 mps 683 mmHg 88%
    10:00 +10°C° 0.1 mm 1 mps 683 mmHg 85%
    11:00 +11°C° 0.1 mm 1 mps 683 mmHg 81%
    12:00 +12°C° 0.1 mm 1 mps 683 mmHg 77%
    13:00 +13°C° 0.1 mm 1 mps 683 mmHg 73%
    14:00 +13°C° 0 mm 1 mps 683 mmHg 73%
    15:00 +13°C° 0 mm 2 mps 682 mmHg 74%
    16:00 +13°C° 0 mm 2 mps 682 mmHg 74%
    17:00 +10°C° 0 mm 1 mps 682 mmHg 81%
    18:00 +8°C° 0 mm 1 mps 682 mmHg 88%
    19:00 +6°C° 0 mm 1 mps 681 mmHg 95%
    20:00 +6°C° 0 mm 1 mps 682 mmHg 95%
    21:00 +6°C° 0 mm 1 mps 682 mmHg 95%
    22:00 +6°C° 0 mm 1 mps 683 mmHg 95%
    23:00 +5°C° 0 mm 1 mps 683 mmHg 95%

    Day after tomorrow, 30 March, Thursday

    Time Temperature Precipitation Wind Pressure Humidity
    00:00 +5°C° 0 mm 1 mps 683 mmHg 94%
    01:00 +5°C° 0 mm 1 mps 683 mmHg 94%
    02:00 +4°C° 0 mm 1 mps 682 mmHg 93%
    03:00 +4°C° 0 mm 1 mps 682 mmHg 93%
    04:00 +4°C° 0 mm 1 mps 682 mmHg 92%
    05:00 +4°C° 0 mm 1 mps 682 mmHg 90%
    06:00 +5°C° 0 mm 1 mps 682 mmHg 87%
    07:00 +6°C° 0 mm 1 mps 683 mmHg 85%
    08:00 +8°C° 0 mm 1 mps 683 mmHg 78%
    09:00 +11°C° 0 mm 1 mps 683 mmHg 72%
    10:00 +13°C° 0 mm 1 mps 684 mmHg 65%
    11:00 +14°C° 0 mm 1 mps 684 mmHg 63%
    12:00 +14°C° 0 mm 1 mps 683 mmHg 61%
    13:00 +15°C° 0 mm 1 mps 683 mmHg 59%
    14:00 +15°C° 0 mm 1 mps 683 mmHg 60%
    15:00 +15°C° 0 mm 1 mps 683 mmHg 62%
    16:00 +15°C° 0 mm 1 mps 682 mmHg 63%
    17:00 +12°C° 0 mm 1 mps 682 mmHg 73%
    18:00 +9°C° 0 mm 1 mps 681 mmHg 82%
    19:00 +7°C° 0 mm 1 mps 680 mmHg 92%
    20:00 +7°C° 0 mm 1 mps 681 mmHg 92%
    21:00 +7°C° 0 mm 1 mps 681 mmHg 91%
    22:00 +6°C° 0 mm 2 mps 681 mmHg 91%
    23:00 +6°C° 0 mm 2 mps 681 mmHg 90%

    31 March, Friday

    Time Temperature Precipitation Wind Pressure Humidity
    00:00 +5°C° 0 mm 2 mps 681 mmHg 89%
    01:00 +5°C° 0 mm 2 mps 681 mmHg 88%
    02:00 +5°C° 0 mm 2 mps 681 mmHg 88%
    03:00 +5°C° 0 mm 2 mps 680 mmHg 88%
    04:00 +5°C° 0 mm 2 mps 680 mmHg 89%
    05:00 +5°C° 0 mm 2 mps 680 mmHg 88%
    06:00 +6°C° 0 mm 2 mps 680 mmHg 88%
    07:00 +6°C° 0 mm 2 mps 680 mmHg 87%
    08:00 +9°C° 0 mm 2 mps 680 mmHg 79%
    09:00 +12°C° 0 mm 2 mps 680 mmHg 72%
    10:00 +14°C° 0 mm 2 mps 680 mmHg 64%
    11:00 +15°C° 0 mm 2 mps 680 mmHg 61%
    12:00 +16°C° 0 mm 2 mps 680 mmHg 58%
    13:00 +17°C° 0 mm 2 mps 679 mmHg 55%
    14:00 +17°C° 0 mm 2 mps 679 mmHg 57%
    15:00 +17°C° 0 mm 2 mps 678 mmHg 59%
    16:00 +16°C° 0 mm 2 mps 678 mmHg 61%
    17:00 +14°C° 0 mm 2 mps 677 mmHg 70%
    18:00 +12°C° 0 mm 2 mps 677 mmHg 80%
    19:00 +8°C° 0 mm 2 mps 676 mmHg 90%
    20:00 +8°C° 0 mm 2 mps 676 mmHg 89%
    21:00 +7°C° 0 mm 2 mps 676 mmHg 89%
    22:00 +7°C° 0 mm 3 mps 676 mmHg 89%
    23:00 +5°C° 0 mm 3 mps 676 mmHg 89%

    1 April, Saturday

    Time Temperature Precipitation Wind Pressure Humidity
    00:00 +5°C° 0 mm 3 mps 676 mmHg 88%
    01:00 +5°C° 0 mm 3 mps 676 mmHg 88%
    02:00 +6°C° 0 mm 2 mps 676 mmHg 89%
    03:00 +5°C° 0 mm 2 mps 676 mmHg 89%
    04:00 +5°C° 0 mm 2 mps 675 mmHg 89%
    05:00 +5°C° 0 mm 2 mps 675 mmHg 88%
    06:00 +6°C° 0 mm 2 mps 675 mmHg 87%
    07:00 +6°C° 0 mm 2 mps 676 mmHg 85%
    08:00 +8°C° 0 mm 2 mps 676 mmHg 77%
    09:00 +11°C° 0 mm 1 mps 676 mmHg 69%
    10:00 +13°C° 0 mm 1 mps 676 mmHg 61%
    11:00 +14°C° 0 mm 1 mps 676 mmHg 60%
    12:00 +15°C° 0 mm 2 mps 676 mmHg 59%
    13:00 +15°C° 0 mm 2 mps 676 mmHg 57%
    14:00 +15°C° 0.2 mm 2 mps 675 mmHg 60%
    15:00 +15°C° 0.2 mm 2 mps 675 mmHg 62%
    16:00 +14°C° 0.2 mm 2 mps 675 mmHg 65%
    17:00 +12°C° 0.2 mm 2 mps 674 mmHg 73%
    18:00 +9°C° 0.2 mm 2 mps 674 mmHg 82%
    19:00 +7°C° 0.2 mm 2 mps 674 mmHg 91%
    20:00 +6°C° 0 mm 2 mps 674 mmHg 90%
    21:00 +6°C° 0 mm 2 mps 674 mmHg 89%
    22:00 +5°C° 0 mm 2 mps 675 mmHg 89%
    23:00 +5°C° 0 mm 2 mps 675 mmHg 89%

    2 April, Sunday

    Time Temperature Precipitation Wind Pressure Humidity
    00:00 +5°C° 0 mm 2 mps 675 mmHg 89%
    01:00 +4°C° 0 mm 2 mps 675 mmHg 89%
    02:00 +4°C° 0 mm 2 mps 675 mmHg 88%
    03:00 +4°C° 0 mm 2 mps 675 mmHg 88%
    04:00 +4°C° 0 mm 2 mps 675 mmHg 87%
    05:00 +4°C° 0 mm 2 mps 676 mmHg 84%
    06:00 +6°C° 0 mm 1 mps 676 mmHg 80%
    07:00 +7°C° 0 mm 1 mps 676 mmHg 77%
    08:00 +8°C° 0 mm 1 mps 677 mmHg 72%
    09:00 +10°C° 0 mm 1 mps 677 mmHg 68%
    10:00 +12°C° 0 mm 1 mps 677 mmHg 64%
    11:00 +12°C° 0.1 mm 2 mps 677 mmHg 65%
    12:00 +13°C° 0.1 mm 2 mps 677 mmHg 66%
    13:00 +13°C° 0.1 mm 2 mps 677 mmHg 67%
    14:00 +12°C° 0.6 mm 2 mps 677 mmHg 72%
    15:00 +12°C° 0.6 mm 2 mps 677 mmHg 76%
    16:00 +10°C° 0.6 mm 2 mps 676 mmHg 81%
    17:00 +9°C° 0.9 mm 2 mps 676 mmHg 86%
    18:00 +9°C° 0.9 mm 1 mps 676 mmHg 91%
    19:00 +8°C° 0.9 mm 1 mps 676 mmHg 97%
    20:00 +8°C° 1.3 mm 1 mps 676 mmHg 97%
    21:00 +8°C° 1.3 mm 1 mps 677 mmHg 97%
    22:00 +7°C° 1.3 mm 1 mps 677 mmHg 97%
    23:00 +7°C° 0.7 mm 1 mps 677 mmHg 97%
    Show more